Location: Niverville
(49.6028°N, 97.0419°W)
Time: 08:50:01
(UTC-05:00)

ISS - All Passes

Search period start: 19 September 2014 00:00
Search period end: 29 September 2014 00:00
Orbit: 414 x 417 km, 51.6° (Epoch: 19 September)

Date Brightness Start Highest point End Pass type
(mag) Time Alt. Az. Time Alt. Az. Time Alt. Az.
19 Sep - 04:37:57 10° SW 04:41:09 45° SSE 04:44:22 10° ENE visible
19 Sep - 06:14:30 10° W 06:17:50 65° N 06:21:09 10° ENE visible
19 Sep - 07:51:25 10° WNW 07:54:45 68° N 07:58:05 10° E daylight
19 Sep - 09:28:14 10° WNW 09:31:24 41° SSW 09:34:34 10° SE daylight
20 Sep - 03:49:27 10° SSW 03:52:26 31° SSE 03:55:26 10° E visible
20 Sep - 05:25:38 10° WSW 05:28:58 78° NNW 05:32:19 10° ENE visible
20 Sep - 07:02:34 10° WNW 07:05:53 60° N 07:09:11 10° E daylight
20 Sep - 08:39:21 10° WNW 08:42:39 60° SSW 08:45:56 10° SE daylight
20 Sep - 10:17:05 10° WSW 10:18:50 14° SW 10:20:34 10° SSW daylight
21 Sep - 03:01:10 10° SSW 03:03:44 21° SE 03:06:19 10° E visible
21 Sep - 04:36:46 10° WSW 04:40:06 83° SSE 04:43:27 10° ENE visible
21 Sep - 06:13:40 10° W 06:16:58 58° N 06:20:16 10° E visible
21 Sep - 07:50:28 10° WNW 07:53:49 82° SSW 07:57:09 10° ESE daylight
21 Sep - 09:27:37 10° W 09:30:11 21° SW 09:32:44 10° SSE daylight
22 Sep - 02:13:16 10° S 02:15:03 14° SE 02:16:51 10° ESE night (unlit)
22 Sep - 03:47:57 10° SW 03:51:15 61° SSE 03:54:33 10° ENE visible
22 Sep - 05:24:42 10° W 05:28:00 60° N 05:31:19 10° ENE visible
22 Sep - 07:01:34 10° WNW 07:04:55 78° NNE 07:08:15 10° ESE daylight
22 Sep - 08:38:27 10° W 08:41:26 30° SW 08:44:24 10° SSE daylight
23 Sep - 02:59:13 10° SW 03:02:23 42° SSE 03:05:34 10° ENE visible
23 Sep - 04:35:42 10° W 04:39:02 67° N 04:42:22 10° ENE visible
23 Sep - 06:12:37 10° WNW 06:15:57 66° N 06:19:16 10° E visible
23 Sep - 07:49:24 10° WNW 07:52:37 45° SSW 07:55:48 10° SE daylight
24 Sep - 02:10:38 10° SSW 02:13:32 28° SE 02:16:28 10° E night (unlit)
24 Sep - 03:46:42 10° WSW 03:50:02 81° NNW 03:53:23 10° ENE visible
24 Sep - 05:23:37 10° WNW 05:26:56 59° N 05:30:14 10° E visible
24 Sep - 07:00:23 10° WNW 07:03:42 65° SSW 07:07:00 10° ESE daylight
24 Sep - 08:37:57 10° WSW 08:39:55 15° SW 08:41:53 10° S daylight
25 Sep - 01:22:16 10° S 01:24:43 19° SE 01:27:10 10° E night (unlit)
25 Sep - 02:57:42 10° WSW 03:01:02 78° SSE 03:04:23 10° ENE visible
25 Sep - 04:34:34 10° W 04:37:52 58° N 04:41:10 10° E visible
25 Sep - 06:11:22 10° WNW 06:14:43 87° SSW 06:18:03 10° ESE visible
25 Sep - 07:48:26 10° W 07:51:07 22° SW 07:53:46 10° SSE daylight
26 Sep - 00:34:24 10° SSE 00:35:54 13° SE 00:37:24 10° ESE night (unlit)
26 Sep - 02:08:46 10° SW 02:12:02 56° SSE 02:15:19 10° ENE night (unlit)
26 Sep - 03:45:27 10° W 03:48:46 61° N 03:52:05 10° ENE visible
26 Sep - 05:22:19 10° WNW 05:25:40 75° NNE 05:29:00 10° E visible
26 Sep - 06:59:10 10° W 07:02:13 33° SSW 07:05:15 10° SSE daylight
27 Sep - 01:19:55 10° SW 01:23:03 38° SSE 01:26:11 10° E night (unlit)
27 Sep - 02:56:19 10° W 02:59:39 70° NNW 03:02:59 10° ENE night (unlit)
27 Sep - 04:33:14 10° WNW 04:36:33 64° N 04:39:52 10° E visible
27 Sep - 06:10:00 10° WNW 06:13:15 49° SSW 06:16:28 10° SE visible
27 Sep - 07:48:38 10° WSW 07:49:18 10° SW 07:49:58 10° SW daylight
28 Sep - 00:31:15 10° SSW 00:34:04 26° SE 00:36:55 10° E night (unlit)
28 Sep - 02:07:11 10° WSW 02:10:31 86° NNW 02:13:52 10° ENE night (unlit)
28 Sep - 03:44:05 10° WNW 03:47:23 59° N 03:50:42 10° E visible
28 Sep - 05:20:51 10° WNW 05:24:11 70° SSW 05:27:30 10° ESE visible
28 Sep - 06:58:15 10° W 07:00:26 16° SW 07:02:36 10° S daylight
28 Sep - 23:42:50 10° S 23:45:07 17° SE 23:47:24 10° E night (unlit)
